This is the latest recevied weather packets stored in our database for station/object DM4XI-13. If no packets are shown the sender has not sent any weather packets the latest 10 day(s).
| Time | Temp. | Humidity | Pressure | Rain* | Wind** | Luminosity | Snow |
|---|---|---|---|---|---|---|---|
| 1777645407 | 22.22° C | 30% | 1023.7 hPa | 0 mm | 0.89 m/s, 37° | 406 W/m² | - |
| 1777645346 | 22.22° C | 30% | 1023.7 hPa | 0 mm | 0.89 m/s, 268° | 409 W/m² | - |
| 1777645285 | 22.22° C | 31% | 1023.7 hPa | 0 mm | 0.89 m/s, 218° | 411 W/m² | - |
| 1777645224 | 22.22° C | 30% | 1023.6 hPa | 0 mm | 0 m/s | 414 W/m² | - |
| 1777645163 | 21.67° C | 31% | 1023.8 hPa | 0 mm | 0.45 m/s, 236° | 415 W/m² | - |
| 1777645102 | 21.67° C | 31% | 1023.7 hPa | 0 mm | 0.45 m/s, 233° | 417 W/m² | - |
| 1777645041 | 21.67° C | 30% | 1023.7 hPa | 0 mm | 0 m/s | 419 W/m² | - |
| 1777644980 | 21.67° C | 31% | 1023.9 hPa | 0 mm | 1.34 m/s, 160° | 421 W/m² | - |
| 1777644919 | 22.22° C | 30% | 1023.8 hPa | 0 mm | 0.89 m/s, 10° | 424 W/m² | - |
| 1777644858 | 21.67° C | 30% | 1023.8 hPa | 0 mm | 1.79 m/s, 16° | 425 W/m² | - |
| 1777644797 | 21.67° C | 30% | 1023.8 hPa | 0 mm | 0.89 m/s, 279° | 427 W/m² | - |
| 1777644736 | 21.67° C | 31% | 1023.8 hPa | 0 mm | 0 m/s | 428 W/m² | - |
| 1777644675 | 21.67° C | 31% | 1023.7 hPa | 0 mm | 0.45 m/s, 149° | 430 W/m² | - |
| 1777644614 | 21.67° C | 30% | 1023.8 hPa | 0 mm | 0.45 m/s, 219° | 431 W/m² | - |
| 1777644553 | 21.67° C | 31% | 1023.7 hPa | 0 mm | 0.89 m/s, 322° | 433 W/m² | - |
| 1777644492 | 21.67° C | 31% | 1023.7 hPa | 0 mm | 1.79 m/s, 35° | 434 W/m² | - |
| 1777644431 | 21.67° C | 32% | 1023.8 hPa | 0 mm | 0.89 m/s, 8° | 438 W/m² | - |
| 1777644370 | 21.67° C | 31% | 1023.8 hPa | 0 mm | 0.45 m/s, 191° | 440 W/m² | - |
| 1777644309 | 21.67° C | 31% | 1023.8 hPa | 0 mm | 0.45 m/s, 115° | 440 W/m² | - |
| 1777644249 | 21.67° C | 31% | 1023.7 hPa | 0 mm | 0.89 m/s, 97° | 441 W/m² | - |
| 1777644192 | 22.22° C | 31% | 1023.8 hPa | 0 mm | 0.89 m/s, 154° | 444 W/m² | - |
| 1777644127 | 22.22° C | 31% | 1023.7 hPa | 0 mm | 1.34 m/s, 128° | 447 W/m² | - |
| 1777644065 | 22.22° C | 32% | 1023.7 hPa | 0 mm | 0.89 m/s, 134° | 448 W/m² | - |
| 1777644004 | 22.22° C | 32% | 1023.8 hPa | 0 mm | 0.89 m/s, 115° | 451 W/m² | - |
| 1777643943 | 21.67° C | 31% | 1023.7 hPa | 0 mm | 0.45 m/s, 94° | 454 W/m² | - |
* Rain latest hour (hover to see other rain measurements)
** Current wind speed in m/s (hover to see current wind gust speed)